MP3/FLAC

‹ prev 2018-03-10 next › 533 release(s) · 50,53 GB · filter: day
Release Group Size Files Date ↓
T.K.O-Far_East_Soldier-WEB-2016-FALCON FALCON 36,56 MB 5 2018-03-10
Alien_Png.Wav-U_Got_2b_Kidin-WEB-2017-PTC PTC 16,70 MB 6 2018-03-10
Alien_Png.Wav-TV_Breaks-WEB-2018-PTC PTC 63,59 MB 7 2018-03-10
Marcos_Carnaval-Zulu-WEB-2018-SHP_INT SHP_INT 9,32 MB 5 2018-03-10
Jacob_Forever_Feat_Victor_Manuelle-La_Protagonista-WEB-SP-2018-SHP_INT SHP_INT 24,79 MB 7 2018-03-10
Angeles_Feat_El_Micha-Me_Enamore-WEB-SP-2018-SHP_INT SHP_INT 24,28 MB 7 2018-03-10
Alex_Sansation_and_Bad_Bunny-Fantasia-WEB-SP-2018-SHP_INT SHP_INT 23,93 MB 7 2018-03-10
Scott_Brown_-_The_Buckfast_Experience-(NEO010)-REPACK-2001-WEB-RED_int RED_int 49,32 MB 7 2018-03-10
Mau_Y_Ricky_and_Karol_G_Feat_Becky_G_Leslie_Grace_and_Lali-Mi_Mala_(Remix)-WEB-SP-2018-SHP_INT SHP_INT 26,63 MB 7 2018-03-10
Neophyte_-_D.R.U.G.S-(NEO011)-2001-WEB-RED_int RED_int 56,83 MB 8 2018-03-10
DJ_Veljko_Jovic_-_Ruthless-(IAD021)-WEB-2018-XDS XDS 32,73 MB 5 2018-03-10
DeKRA_-_Space_EP-(RLK065)-WEB-2018-XDS XDS 31,30 MB 5 2018-03-10
Simun_-_Says__Come_On-(CYFI064D)-WEB-2018-XDS XDS 24,45 MB 6 2018-03-10
EDX_-_No_Xcuses_368-SAT-03-10-2018-TALiON TALiON 98,79 MB 4 2018-03-10
Affi_Koman_-_Take_Me_Higher-(LYSC006)-WEB-2018-ZzZz ZzZz 19,38 MB 4 2018-03-10
Scott_Brown_-_The_Buckfast_Experience-(NEO010)-2000-WEB-RED_int RED_int 51,58 MB 7 2018-03-10
Bodylotion_-_The_Final_Bodylotion_Pt._II-(NEO005)-2000-WEB-RED_int RED_int 56,35 MB 7 2018-03-10
Evil_Activities_-_3_Months_To_X-Tinction-(NEO006)-2000-WEB-RED_int RED_int 47,68 MB 7 2018-03-10
London_Fields_-_Colour_To_My_Life-(FF0025)-WEB-2018-ZzZz ZzZz 69,87 MB 8 2018-03-10
Masters_of_Ceremony_-_Hardcore_Will_Survive-(NEO007)-2000-WEB-RED_int RED_int 46,18 MB 7 2018-03-10
Daniel_Jaze_and_Discotronique_-_Soul_Train-(METPO114)-WEB-2018-ZzZz ZzZz 16,35 MB 5 2018-03-10
VA_-_Neophyte_Records_-_Sampler_Vol._1-(NEO008)-2000-WEB-RED_int RED_int 41,35 MB 7 2018-03-10
Neophyte_And_Scott_Brown_-_This_One_Is_For_You-(NEO009)-2000-WEB-RED_int RED_int 45,41 MB 7 2018-03-10
Neophyte_-_Number_One_Fan-(NEO001)-1999-WEB-RED_int RED_int 45,27 MB 7 2018-03-10
Hard_Creation_-_I_Will_Have_That_Power-(NEO002)-1999-WEB-RED_int RED_int 64,56 MB 10 2018-03-10
Evil_Activities_-_6_Months_To_X-Tinction-(NEO003)-1999-WEB-RED_int RED_int 45,21 MB 7 2018-03-10
Chaosphere_-_We_Are_The_Base-(NEO004)-1999-WEB-RED_int RED_int 52,13 MB 7 2018-03-10
Rod_B_-_Live_at_Ultra_Music_Festival_(Brazil)-SAT-10-14-2018-TALiON TALiON 94,71 MB 4 2018-03-10
Mathew_Jonson-Her_Blurry_Pictures-(CRMCD023)-PROMO-CD-FLAC-2013-HOUND HOUND 278,08 MB 11 2018-03-10
Nap_Eyes-Im_Bad_Now-(YC-033)-CD-2018-FANG FANG 74,64 MB 14 2018-03-10
Nap_Eyes-Im_Bad_Now-(YC-033)-CD-FLAC-2018-HOUND HOUND 276,45 MB 14 2018-03-10
Unhinged_Sextet-Dont_Blink-(OA222145)-CD-2017-FANG FANG 86,30 MB 11 2018-03-10
Unhinged_Sextet-Dont_Blink-(OA222145)-CD-FLAC-2017-HOUND HOUND 297,10 MB 11 2018-03-10
VA-Deep_Dance_156_(Part_2)-BOOTLEG-WEB-2018-NOiCE_INT NOiCE_INT 118,53 MB 5 2018-03-10
Marcus_Santoro_-_Savitar-(STM203B)-WEB-2018-MMS MMS 19,61 MB 5 2018-03-10
Bjorn_Skifs-Basta_Nu_Och_Da-CD-FLAC-2017-THEVOiD THEVOiD 508,89 MB 27 2018-03-10
Mata_Jones_and_Alex_Loco_-_My_Dreams-(PSB074)-WEB-2018-ZzZz ZzZz 45,78 MB 7 2018-03-10
Space_Food_-_Rumble_Temptation-(GTR105)-WEB-2018-ZzZz ZzZz 27,49 MB 5 2018-03-10
Kikki_Danielsson-Portrait_Of_A_Painted_Lady-CD-FLAC-2017-THEVOiD THEVOiD 306,11 MB 18 2018-03-10
Everything_Is_Recorded-Everything_Is_Recorded-CD-FLAC-2018-THEVOiD THEVOiD 216,87 MB 16 2018-03-10
Fever_Ray-Plunge-CD-FLAC-2018-THEVOiD THEVOiD 272,82 MB 15 2018-03-10
Errol_Rackipov_Group-Distant_Dreams-(OA222144)-CD-2017-FANG FANG 81,18 MB 11 2018-03-10
Errol_Rackipov_Group-Distant_Dreams-(OA222144)-CD-FLAC-2017-HOUND HOUND 290,07 MB 11 2018-03-10
Liza_Anne-Fine_But_Dying-(AC148CD)-CD-FLAC-2018-HOUND HOUND 238,01 MB 14 2018-03-10
Liza_Anne-Fine_But_Dying-(AC148CD)-CD-2018-FANG FANG 68,79 MB 14 2018-03-10
Felix_Jaehn_-_Guest_Room_Mix-SAT-03-08-2018-TALiON TALiON 101,47 MB 4 2018-03-10
Matan_Caspi-Crosswinds-WEB-2018-AFO AFO 83,47 MB 7 2018-03-10
Pacific_State_-_1990-(HS_001)-WEB-2017-ZzZz ZzZz 75,28 MB 9 2018-03-10
K.Oshkin-Dark_Baroque-WEB-2018-AFO AFO 46,93 MB 6 2018-03-10
Simun_-_My_Game-(GDL_1710)-WEB-2017-ZzZz ZzZz 25,44 MB 6 2018-03-10